www.pogodaiklimat.ru

Погода и климат >> Архив погоды >> Россия >> Марий-Эл >> Йошкар-Ола


АРХИВ ПОГОДЫ в Йошкар-Оле

Время (UTC), дата Ветер
(напр.,м/с)
 
Видим.   Явления Облачность Т
(С)
Тd
(С)
f
(%)
Тe
(С)
Тes
(С)
Комфортность P
(гПа)
Po
(гПа)
Тmin
(С)
Tmax
(С)
R
(мм)
R24
(мм)
S
(см)
03 20.03 ЮЗ 2-4
{6}
10 км 10/8 300 м
[Frnb As op]
+2.5 +0.1 84 -1 -1 тепло 1022.0 1007.1 +2.5 43
06 20.03 ЮЗ 3-5
{5}
4000 м слаб. дождь 10/8 300 м
[Frnb As op]
+2.8 +1.0 88 -1 -1 тепло 1021.8 1006.9
09 20.03 ЮЗ 3-5
{7}
4000 м слаб. дождь 10/8 300 м
[Frnb As op]
+3.0 +0.9 86 -1 -1 тепло 1021.6 1006.7
12 20.03 ЮЗ 2-4
{6}
4000 м дымка {дождь} 10/8 300 м
[Frnb As op]
+3.3 +1.2 86 0 0 тепло 1021.3 1006.4
15 20.03 ЮЗ 3-5
{5}
4000 м дымка 10/8 300 м
[Frnb As op]
+2.8 +0.7 86 -1 -1 тепло 1020.6 1005.7 +3.4 0.0
18 20.03 ЮЗ 2-4
{5}
4000 м дымка 10/10 300 м
[St]
+1.8 +0.5 91 -2 -2 тепло 1020.8 1005.7
21 20.03 ЮЗ 2-4
{5}
4000 м дымка 10/10 300 м
[St]
+1.5 +0.4 92 -2 -2 тепло 1020.4 1005.3
00 21.03 З 2-4
{6}
10 км 10/10 300 м
[St]
+0.9 -0.2 92 -3 -3 тепло 1019.8 1004.7
03 21.03 ЮЗ 1-3
{4}
4000 м дымка 10/4 600 м
[Sc Ac As]
-0.2 -0.8 96 -2 -2 тепло 1019.6 1004.4 -0.2 42
06 21.03 З 2-3
{4}
10 км 8/3 1000 м
[Sc Ac trans]
+2.3 -0.1 84 -1 +1 тепло 1019.7 1004.6
09 21.03 З 2-3
{4}
20 км 9/3 1000 м
[Cu med, cong Ac trans]
+5.0 -2.9 57 +3 +5 тепло 1019.3 1004.5
12 21.03 С 2-3
{4}
50 км 9/6 600 м
[Cb calv Ac trans]
+4.3 -2.5 61 +2 +3 тепло 1018.6 1003.7
15 21.03 СЗ 2-3
{4}
20 км 9/6 600 м
[Cb calv Ac trans]
+1.8 -0.7 83 -1 -1 тепло 1018.4 1003.3 +5.8
18 21.03 штиль 0
{3}
10 км 9/6 600 м
[Sc Ac trans]
+1.3 -1.3 83 0 0 тепло 1018.4 1003.3
21 21.03 ЮЗ 2-2
{3}
10 км 9/6 600 м
[Sc Ac trans]
0.0 -2.4 84 -4 -4 по сезону 1017.5 1002.4
00 22.03 Ю 1-2
{3}
10 км 9/6 600 м
[Sc Ac trans]
-0.8 -2.0 92 -3 -3 тепло 1016.4 1001.3
03 22.03 Ю 2-4
{4}
4000 м дымка 9/6 600 м
[Sc Ac trans]
-1.0 -1.9 94 -5 -5 по сезону 1015.3 1000.2 -1.1 41
06 22.03 ЮЗ 2-5
{5}
10 км 8/3 1000 м
[Sc Ac trans Cc]
+1.6 -2.2 76 -2 0 тепло 1014.3 999.3 -1.4
09 22.03 Ю 3-6
{8}
50 км 8/8 600 м
[Cb cap]
+4.1 -6.2 47 +1 +2 тепло 1012.5 997.6
12 22.03 З 2-5
{7}
50 км 9/8 600 м
[Cb cap Ac trans]
+4.3 -5.9 47 +2 +3 тепло 1011.6 996.8
15 22.03 Ю 1-1
{5}
50 км 10/8 600 м
[Cb calv Ac As]
+3.3 -5.3 53 +2 +2 тепло 1012.1 997.3 +4.9
18 22.03 Ю 1-2
{3}
10 км 8/4 1000 м
[Sc diur, vesp Ac trans]
+0.8 -6.0 60 -1 -1 тепло 1013.4 998.4
21 22.03 СВ 1-1
{2}
10 км 9/5 1000 м
[Sc Ac trans]
0.0 -3.4 78 -2 -2 тепло 1014.6 999.5
00 23.03 СВ 1-2
{2}
10 км 5/3 1000 м
[Sc diur, vesp Ac lent Ci fib]
-3.1 -4.8 88 -5 -5 по сезону 1016.0 1000.8
03 23.03 СВ 1-2
{3}
10 км 5/0
[Ac trans]
-5.3 -6.0 95 -8 -8 по сезону 1017.7 1002.4 -5.3 39
06 23.03 СВ 3-5
{5}
10 км 8/3 600 м
[Sc Ac trans]
-0.4 -2.2 88 -5 -4 по сезону 1019.4 1004.2 -5.4
09 23.03 СВ 3-5
{6}
20 км 8/4 600 м
[Sc Ac lent]
+1.5 -1.3 82 -3 -1 по сезону 1020.2 1005.1
12 23.03 СВ 2-4
{7}
20 км 5/0
[Ac lent]
+2.8 -1.7 72 0 +2 по сезону 1020.4 1005.5
15 23.03 В 1-2
{4}
20 км 5/0
[Ac lent]
+2.0 -2.7 71 +1 +1 тепло 1020.7 1005.6 +3.0
18 23.03 штиль 0
{2}
10 км 3/0
[Ac lent]
-1.0 -2.6 89 -2 -2 по сезону 1021.6 1006.4
21 23.03 Ю 2-3
{3}
10 км 8/0
[Ac trans]
-0.4 -3.8 78 -4 -4 по сезону 1021.0 1005.8
00 24.03 Ю 1-2
{3}
10 км 8/3 600 м
[Sc Ac trans]
-0.5 -2.0 90 -3 -3 тепло 1019.9 1004.7
03 24.03 Ю 2-3
{4}
10 км 9/3 600 м
[Sc Ac trans]
-0.6 -1.8 92 -4 -4 по сезону 1018.9 1003.7 -1.0 38
06 24.03 Ю 3-5
{5}
4000 м дымка 9/4 600 м
[Sc Ac trans]
-0.7 -2.2 90 -6 -5 по сезону 1018.5 1003.3 -1.6
09 24.03 Ю 4-6
{6}
10 км 10/5 600 м
[Sc Ac As]
+1.8 -1.9 76 -3 -2 по сезону 1016.2 1001.2
12 24.03 Ю 3-6
{8}
10 км 10/5 600 м
[Sc Ac As]
+1.9 -2.1 75 -2 -2 по сезону 1014.6 999.6
15 24.03 Ю 3-5
{7}
10 км 10/6 600 м
[Cb calv Ac As]
+1.7 -2.0 76 -2 -2 по сезону 1012.6 997.6 +2.3
18 24.03 Ю 3-4
{5}
10 км 10/6 600 м
[Sc Ac As]
+0.1 -2.6 82 -4 -4 по сезону 1011.3 996.3
21 24.03 Ю 2-4
{5}
10 км 10/6 600 м
[Sc Ac As]
-0.8 -3.0 85 -5 -5 по сезону 1009.3 994.3
00 25.03 ЮВ 2-3
{5}
4000 м слаб. снег 10/10 300 м
[Frnb Ns]
-0.6 -1.2 96 -5 -5 по сезону 1006.7 991.8
03 25.03 СВ 3-4
{4}
2000 м снег 10/10 300 м
[Frnb Ns]
-0.9 -1.6 95 -6 -6 по сезону 1002.8 987.9 -0.9 0.5 38
06 25.03 С 4-6
{7}
1000 м снег 10/10 300 м
[Frnb Ns]
-0.5 -1.1 96 -6 -6 по сезону 997.2 982.4
09 25.03 С 6-10
{10}
500 м сильн. снег 10/10 300 м
[Frnb Ns]
-0.5 -0.8 98 -8 -8 прохладно 992.7 977.9
12 25.03 СЗ 8-12
{12}
500 м сильн. снег 10/10 300 м
[Frnb Ns]
-0.2 -0.5 98 -8 -8 прохладно 991.7 977.0
15 25.03 СЗ 7-12
{13}
1000 м снег 10/10 300 м
[Frnb Ns]
-0.1 -0.4 98 -7 -7 по сезону 994.2 979.4 0.0 13
18 25.03 З 4-8
{12}
10 км слаб. снег 10/8 300 м
[Frnb As op]
-0.3 -1.2 94 -6 -6 по сезону 997.5 982.6
21 25.03 З 5-8
{9}
10 км 10/8 600 м
[Sc As op]
-0.5 -2.3 88 -7 -7 по сезону 1000.3 985.4
00 26.03 З 4-6
{9}
10 км 8/4 1000 м
[Sc Ac trans]
-1.8 -3.6 87 -8 -8 по сезону 1003.4 988.4
03 26.03 ЮЗ 2-4
{7}
20 км 3/3 1000 м
[Sc]
-2.8 -4.8 86 -7 -7 по сезону 1006.1 991.1 -2.8 0.7 51
06 26.03 ЮЗ 3-5
{8}
20 км 3/0
[Ac lent Ci sp]
+0.8 -3.8 71 -3 -1 по сезону 1008.1 993.2
09 26.03 ЮЗ 4-6
{8}
20 км 5/0
[Ac lent Ci fib]
+4.4 -1.3 66 0 +4 по сезону 1008.8 994.1
12 26.03 ЮЗ 4-7
{9}
20 км 5/0
[Ac lent]
+6.8 -3.2 49 +4 +5 тепло 1008.7 994.1
15 26.03 Ю 3-4
{7}
20 км 6/3 1000 м
[Sc Ac lent]
+3.5 -3.5 60 0 0 по сезону 1008.4 993.6 +6.9
18 26.03 Ю 3-4
{6}
10 км 10/3 1000 м
[Sc Ac As]
+0.7 -3.9 71 -4 -4 по сезону 1007.9 993.0
21 26.03 штиль 0
{5}
10 км 10/5 1000 м
[Sc Ac As]
-0.5 -2.6 86 -2 -2 по сезону 1007.3 992.4

 

Местоположение метеостанции Йошкар-Ола (Марий-Эл, Россия): широта 56.63 долгота 47.77 высота над уровнем моря 120 м.

В архиве по умолчанию представлена погода в Йошкар-Оле за последнюю неделю. Архивные данные за месяц целиком и за предыдущие месяцы, начиная с января 2011 года, Вы можете получить, выбрав интересующий диапазон дат из раскрывающегося списка и нажав кнопку "Ввод!".


*Определитесь, кто Вы:
робот инопланетянин человек

Внимание! Время в таблицах - всемирное. Для получения местного времени необходимо прибавить поправку, которая равна 3 ч.

Смотрите также архив погоды в соседних городах и на ближайших метеорологических станциях:

Погода в Санчурске (Кировская область, Россия) (48 км)
Погода в Чебоксарах (Чувашия, Россия) (67 км)
Погода в Новом Торьяле (Марий-Эл, Россия) (71 км)
Погода в Морках (Марий-Эл, Россия) (80 км)
Погода в Козьмодемьянске (Марий-Эл, Россия) (80 км)
Погода в Яранске (Кировская область, Россия) (83 км)
Погода в Вязовых (Татарстан, Россия) (101 км)
Погода в Канаше (Чувашия, Россия) (125 км)
Погода в Шахунье (Нижегородская область, Россия) (134 км)
Погода в Казани (Татарстан, Россия) (134 км)

Пояснения к столбцам:

Ветер - указаны скорость ветра в м/с - средняя за 10 мин, порывы в срок и между сроками (в фигурных скобках) и направление, откуда дует ветер: С - северный, СВ - северо-восточный, В - восточный, ЮВ - юго-восточный, Ю - южный, ЮЗ - юго-западный, З - западный, СЗ - северо-западный.
Видимость - горизонтальная дальность видимости в метрах или километрах. При видимости от 1 до 10 км при отсутствии осадков обычно наблюдается дымка, при ухудшении видимости до 1 км и менее - туман. В сухую погоду видимость может ухудшаться дымом, пылью или мглою.
Явления - указаны атмосферные явления, наблюдавшиеся в срок или в последний час перед сроком; фигурными скобками обозначены явления, наблюдавшиеся между сроками (за 1-3 часа до срока); квадратными скобками обозначены град или гололедные отложения с указанием их диаметра в мм.
Облачность - указаны через наклонную черту общая и нижняя облачность в баллах и высота нижней границы облаков в метрах; квадратными скобками обозначены формы облаков: Ci - перистые, Cs - перисто-слоистые, Cc - перисто-кучевые, Ac - высококучевые, As - высокослоистые, Sc - слоисто-кучевые, Ns - слоисто-дождевые, Cu - кучевые, Cb - кучево-дождевые. Подробнее классификацию облаков см. в Атласе облаков (PDF).
T - Температура воздуха - температура, измеренная на высоте 2 м над землей.
Td - Температура точки росы - температура, при понижении до которой содержащийся в воздухе водяной пар достигнет насыщения.
f - Относительная влажность воздуха - влажноcть воздуха, измеренная на высоте 2 м над землей.
Te - Эффективная температура - температура, которую ощущает одетый по сезону человек в тени. Характеристика душности погоды. При расчете учитывается влияние влажности воздуха и скорости ветра на теплоощущения человека.
Tes - Эффективная температура на солнце - температура, которую ощущает человек, с поправкой на солнечный нагрев. Характеристика знойности погоды. Зависит от высоты солнца над горизонтом, облачности и скорости ветра. Ночью, в пасмурную погоду, а также при ветре 12 м/с и более поправка равна нулю.
P - Атмосферное давление - приведенное к уровню моря атмосферное давление.
Po - Атмосферное давление - измеренное на уровне метеостанции атмосферное давление.
Tmin - Минимальная температура - минимум температуры воздуха на высоте 2 м над землей.
Tmax - Максимальная температура - максимум температуры воздуха на высоте 2 м над землей.
R - Количество осадков - Количество выпавших осадков за период времени, мм. При наведении курсора мыши на число - период времени, за который выпало указанное количество осадков.
R24 - Количество осадков - Количество выпавших осадков за 24 часа, мм.
S - Снежный покров - Высота снежного покрова, см. При наведении курсора мыши на число - состояние снежного покрова и степень покрытия местности в баллах.